Weather History for LICZ - March, 2013

Change the Weather History Date:

Sunday, March 31, 2013

  Actual Average Record
Temperature  
Mean Temperature 62 °F -  
Max Temperature 72 °F 69 °F 74 °F (2015)
Min Temperature 52 °F 47 °F 39 °F (1997)
Degree Days  
Heating Degree Days 3    
Growing Degree Days 12 (Base 50)    
Moisture  
Dew Point 49 °F    
Average Humidity 68    
Maximum Humidity 100    
Minimum Humidity 23    
Precipitation  
Precipitation 0.00 in 0.05 in - ()
Sea Level Pressure  
Sea Level Pressure 29.76 in    
Wind  
Wind Speed 13 mph ()    
Max Wind Speed 23 mph    
Max Gust Speed -    
Visibility 7.2 miles    
Events      
Averages and records for this station are not official NWS values.
T = Trace of Precipitation, MM = Missing Value Source: Averaged Metar Reports

Daily Weather History Graph

Daily Weather History Graph

Search for Another Location

Airport or City:

Trip Planner

Search our weather history database for the weather conditions in past years. The results will help you decide how hot, cold, wet, or windy it might be!

Date:

Astronomy

Mar. 31, 2013 Rise Set
Actual Time 6:47 AM CEST 7:22 PM CEST
Civil Twilight 6:21 AM CEST 7:48 PM CEST
Nautical Twilight 5:50 AM CEST 8:19 PM CEST
Astronomical Twilight 5:18 AM CEST 8:51 PM CEST
Moon No Moon Rise 9:24 AM CEST (3/31)
Length of Visible Light 13h 27m
Length of Day
12h 34m
Waning Gibbous, 80% of the Moon is Illuminated
Mar 31
Waning Gibbous
Apr 3
Last Quarter
Apr 10
New
Apr 18
First Quarter
Apr 25
Full

Hourly Weather History & Observations

Time (CEST) Temp. Dew Point Humidity Pressure Visibility Wind Dir Wind Speed Gust Speed Precip Events Conditions
12:55 AM 59.0 °F 55.4 °F 88% 29.74 in 6.2 mi WSW 17.3 mph - N/A   Scattered Clouds
1:00 AM 59 °F 55 °F 84% 29.76 in 11 mi WSW 17.3 mph - -   Partly Cloudy
1:55 AM 57.2 °F 57.2 °F 100% 29.74 in 6.2 mi West 15.0 mph - N/A   Mostly Cloudy
3:55 AM 57.2 °F 57.2 °F 100% 29.74 in 6.2 mi West 10.4 mph - N/A   Scattered Clouds
4:55 AM 55.4 °F 55.4 °F 100% 29.74 in 6.2 mi WSW 12.7 mph - N/A   Partly Cloudy
5:00 AM 55 °F 55 °F 100% 29.75 in 10 mi WSW 12.7 mph - -   Partly Cloudy
5:55 AM 55.4 °F 55.4 °F 100% 29.74 in 6.2 mi West 10.4 mph - N/A   Partly Cloudy
6:55 AM 53.6 °F 51.8 °F 94% 29.71 in - West 12.7 mph - N/A   Clear
8:00 AM 56 °F 50 °F 74% 29.76 in 11 mi West 13.8 mph - -   Partly Cloudy
8:55 AM 59.0 °F 46.4 °F 63% 29.74 in 6.2 mi West 15.0 mph - N/A   Partly Cloudy
9:55 AM 62.6 °F 46.4 °F 55% 29.74 in 6.2 mi West 15.0 mph - N/A   Partly Cloudy
10:55 AM 66.2 °F 42.8 °F 43% 29.74 in 6.2 mi West 15.0 mph - N/A   Partly Cloudy
11:00 AM 66 °F 43 °F 32% 29.75 in 9 mi West 15.0 mph - -   Scattered Clouds
11:55 AM 68.0 °F 39.2 °F 35% 29.74 in 6.2 mi West 15.0 mph - N/A   Scattered Clouds
12:55 PM 69.8 °F 39.2 °F 33% 29.74 in 6.2 mi West 17.3 mph - N/A   Scattered Clouds
1:55 PM 71.6 °F 41.0 °F 33% 29.74 in 6.2 mi West 17.3 mph - N/A   Scattered Clouds
2:00 PM 71 °F 41 °F 23% 29.75 in 11 mi West 17.3 mph - -   Partly Cloudy
2:55 PM 69.8 °F 41.0 °F 35% 29.74 in 6.2 mi West 23.0 mph - N/A   Scattered Clouds
3:55 PM 69.8 °F 44.6 °F 40% 29.74 in 6.2 mi WSW 21.9 mph - N/A   Scattered Clouds
4:55 PM 68.0 °F 48.2 °F 49% 29.71 in 6.2 mi WSW 20.7 mph - N/A   Scattered Clouds
5:00 PM 68 °F 48 °F 37% 29.74 in 9 mi WSW 20.7 mph - -   Partly Cloudy
5:55 PM 66.2 °F 48.2 °F 52% 29.71 in 6.2 mi WSW 17.3 mph - N/A   Scattered Clouds
6:55 PM 64.4 °F 50.0 °F 59% 29.74 in 6.2 mi West 17.3 mph - N/A   Scattered Clouds
7:55 PM 60.8 °F 51.8 °F 72% 29.74 in 6.2 mi West 12.7 mph - N/A   Scattered Clouds
8:00 PM 60 °F 51 °F 65% 29.75 in 9 mi West 12.7 mph - -   Scattered Clouds
8:55 PM 57.2 °F 51.8 °F 82% 29.80 in 6.2 mi West 8.1 mph - N/A   Partly Cloudy
9:55 PM 57.2 °F 51.8 °F 82% 29.80 in - West 12.7 mph - N/A   Clear
10:55 PM 55.4 °F 53.6 °F 94% 29.83 in - West 8.1 mph - N/A   Clear
11:00 PM 55 °F 54 °F 95% 29.83 in 6 mi West 8.1 mph - -  
11:55 PM 55.4 °F 55.4 °F 100% 29.83 in - West 4.6 mph - N/A   Clear
12:55 AM 53.6 °F 50.0 °F 88% 29.83 in - WNW 5.8 mph - N/A   Clear